Location: Walnut Point State Park
(39.6958°N, 88.0345°W)
Time: 18:35:46
(UTC-05:00)

Amateur Radio Satellites - All Passes

Search period start: 22 August 2014 18:05
Search period end: 23 August 2014 18:05
Location: Walnut Point State Park, 39.6958°N, 88.0345°W

Satellite Date Start Highest point End Downlink Frequencies (MHz)
Time Altitude Azimuth
Hamsat 22 Aug 18:22:52 18:27:02 55° 260° (W) 18:31:18 145.90 MHz
PANSAT 22 Aug 18:23:50 18:26:05 15° 184° (S) 18:28:20 not established
PCSat 22 Aug 18:26:30 18:31:29 39° 111° (ESE) 18:36:29 145.825 MHz
STRAND 1 22 Aug 18:28:00 18:30:35 14° 91° (E) 18:33:11 ?
OPAL 22 Aug 18:36:50 18:40:53 23° 297° (WNW) 18:44:55 ?
JAS-2 22 Aug 18:44:15 18:50:48 50° 260° (W) 18:56:38 435.800 - 435.900 CW/SSB, 435.910 FM
HO-68 22 Aug 19:06:09 19:09:19 14° 52° (NE) 19:12:29 435.675 MHz FM
SO-67 22 Aug 19:08:10 19:11:36 67° 76° (ENE) 19:15:04 435.3500 MHz FM
ISS 22 Aug 19:19:22 19:22:06 23° 25° (NNE) 19:24:51 145.800 FM
Sapphire 22 Aug 19:38:57 19:44:14 55° 302° (WNW) 19:49:34 437.095 MHz 1200 baud AX-25 AFSK
RS-15 22 Aug 19:48:33 19:58:54 47° 250° (WSW) 20:09:40 29.354 - 29.394 USB, Beacon 29.352 USB
STRAND 1 22 Aug 20:05:09 20:10:12 65° 287° (WNW) 20:15:14 ?
PCSat 22 Aug 20:10:14 20:14:57 30° 309° (NW) 20:19:43 145.825 MHz
HO-68 22 Aug 20:48:41 20:55:46 71° 71° (ENE) 21:02:53 435.675 MHz FM
ISS 22 Aug 20:55:46 20:59:01 51° 222° (SW) 21:02:15 145.800 FM
Oscar 10/S400 22 Aug 20:56:05 21:16:49 61° 165° (SSE) 05:42:03 145.825 - 145.975 CW/USB, Beacon 145.810 USB
UKube-1 22 Aug 21:04:58 21:09:08 47° 72° (ENE) 21:13:19 145.840 MHz, 145.915 MHz
Oscar 11 22 Aug 21:20:40 21:24:41 39° 72° (ENE) 21:28:44 145.825 FM, Beacon 2401.500 USB
FUNcube-1 22 Aug 21:23:42 21:26:10 16° 65° (ENE) 21:28:38 145.950 - 145.970 MHz USB
Sapphire 22 Aug 21:28:19 21:28:54 10° 323° (NW) 21:29:30 437.095 MHz 1200 baud AX-25 AFSK
AO-40 22 Aug 22:15:25 01:39:15 36° 191° (S) 06:58:08 Beacon 2401.320
HO-68 22 Aug 22:39:01 22:44:02 20° 268° (W) 22:49:05 435.675 MHz FM
UKube-1 22 Aug 22:43:09 22:45:34 15° 267° (W) 22:48:01 145.840 MHz, 145.915 MHz
Oscar 11 22 Aug 22:58:11 23:01:01 17° 267° (W) 23:03:53 145.825 FM, Beacon 2401.500 USB
FUNcube-1 22 Aug 22:58:16 23:02:12 42° 261° (W) 23:06:11 145.950 - 145.970 MHz USB
MaSat-1 22 Aug 23:31:05 23:33:36 14° 46° (NE) 23:35:59 437.345 MHz
KITSAT 1 22 Aug 23:38:43 23:43:27 17° 101° (E) 23:48:11 435.175 FM
Saudisat 1A 23 Aug 00:37:51 00:42:06 50° 117° (ESE) 00:46:22 436.775 MHz
MaSat-1 23 Aug 01:06:38 01:11:27 78° 247° (WSW) 01:15:37 437.345 MHz
KITSAT 1 23 Aug 01:29:36 01:37:42 89° 118° (ESE) 01:45:51 435.175 FM
AO-Echo 23 Aug 01:55:53 01:58:37 15° 92° (E) 02:01:21 ?
Oscar 19 23 Aug 01:57:26 02:02:16 38° 98° (E) 02:07:04 437.125 CW, 437.150 USB
ITAMSAT 1 23 Aug 02:10:43 02:14:41 22° 94° (E) 02:18:37 435.822 SSB
Saudisat 1A 23 Aug 02:18:43 02:21:57 20° 315° (NW) 02:25:12 436.775 MHz
Gurwin Techsat 1B 23 Aug 02:18:54 02:20:06 11° 89° (E) 02:21:17 435.225 FM
Uribyol 2 23 Aug 02:22:31 02:27:03 30° 96° (E) 02:31:35 436.500 FM
Oscar 16 23 Aug 02:30:30 02:35:44 83° 103° (ESE) 02:40:56 437.025 USB, Beacon 2401.1428
AO-27 23 Aug 02:36:45 02:41:36 39° 98° (E) 02:46:26 436.795 MHz FM
Sapphire 23 Aug 02:45:31 02:48:57 17° 44° (NE) 02:52:22 437.095 MHz 1200 baud AX-25 AFSK
JAS-1B 23 Aug 03:03:15 03:10:26 56° 99° (E) 03:16:29 435.800 - 435.900 CW/SSB
TMSAT-1 23 Aug 03:13:19 03:17:51 28° 95° (E) 03:22:21 436.925 FM
PCSat 23 Aug 03:15:11 03:19:52 28° 51° (NE) 03:24:31 145.825 MHz
KITSAT 1 23 Aug 03:27:49 03:34:10 25° 320° (NW) 03:40:33 435.175 FM
AO-Echo 23 Aug 03:33:09 03:37:43 50° 288° (WNW) 03:42:14 ?
Oscar 19 23 Aug 03:37:10 03:41:24 26° 294° (WNW) 03:45:36 437.125 CW, 437.150 USB
ITAMSAT 1 23 Aug 03:49:27 03:54:20 43° 290° (WNW) 03:59:11 435.822 SSB
Gurwin Techsat 1B 23 Aug 03:55:21 04:00:42 85° 285° (WNW) 04:06:00 435.225 FM
Uribyol 2 23 Aug 04:01:56 04:06:28 32° 292° (WNW) 04:11:00 436.500 FM
OPAL 23 Aug 04:11:29 04:16:27 72° 72° (ENE) 04:21:32 ?
Oscar 16 23 Aug 04:12:10 04:14:22 13° 300° (WNW) 04:16:33 437.025 USB, Beacon 2401.1428
Uosat F 23 Aug 04:16:32 04:20:16 21° 94° (E) 04:23:58 435.120 FM
AO-27 23 Aug 04:16:45 04:20:53 25° 294° (WNW) 04:25:00 436.795 MHz FM
Sapphire 23 Aug 04:27:37 04:33:04 83° 243° (WSW) 04:38:29 437.095 MHz 1200 baud AX-25 AFSK
SO-50 23 Aug 04:38:58 04:40:43 12° 107° (ESE) 04:42:28 436.795 FM
TMSAT-1 23 Aug 04:53:01 04:57:46 35° 291° (WNW) 05:02:30 436.925 FM
JAS-1B 23 Aug 04:54:38 05:00:24 25° 302° (WNW) 05:05:30 435.800 - 435.900 CW/SSB
PCSat 23 Aug 04:58:19 05:03:24 42° 249° (WSW) 05:08:27 145.825 MHz
AO-7 23 Aug 05:08:22 05:16:36 63° 104° (ESE) 05:24:45 29.400 - 29.500 MHz
Gurwin Techsat 1B 23 Aug 05:38:23 05:39:49 11° 302° (WNW) 05:41:14 435.225 FM
STRAND 1 23 Aug 05:42:55 05:46:35 20° 64° (ENE) 05:50:14 ?
OPAL 23 Aug 05:53:52 05:55:51 12° 268° (W) 05:57:51 ?
Uosat F 23 Aug 05:54:30 05:59:12 43° 290° (WNW) 06:03:54 435.120 FM
JAS-2 23 Aug 05:55:13 05:58:44 18° 93° (E) 06:02:20 435.800 - 435.900 CW/SSB, 435.910 FM
Hamsat 23 Aug 06:09:46 06:13:31 27° 95° (E) 06:17:14 145.90 MHz
SO-50 23 Aug 06:16:12 06:20:39 67° 304° (WNW) 06:25:12 436.795 FM
AO-7 23 Aug 07:01:58 07:08:49 30° 303° (WNW) 07:15:39 29.400 - 29.500 MHz
STRAND 1 23 Aug 07:20:28 07:25:24 48° 260° (W) 07:30:20 ?
UOSAT-12 23 Aug 07:22:38 07:27:00 45° 116° (ESE) 07:31:28 437.025 FM, 437.400 FM
KITSAT 1 23 Aug 07:30:14 07:33:24 12° 22° (NNE) 07:36:32 435.175 FM
JAS-2 23 Aug 07:39:11 07:44:08 48° 289° (WNW) 07:49:14 435.800 - 435.900 CW/SSB, 435.910 FM
Hamsat 23 Aug 07:45:47 07:49:22 25° 291° (WNW) 07:52:55 145.90 MHz
RS-15 23 Aug 08:00:02 08:09:22 33° 105° (ESE) 08:18:31 29.354 - 29.394 USB, Beacon 29.352 USB
SO-50 23 Aug 08:01:04 08:02:07 11° 324° (NW) 08:03:11 436.795 FM
SO-67 23 Aug 08:05:39 08:09:08 86° 282° (WNW) 08:12:36 435.3500 MHz FM
HO-68 23 Aug 08:20:37 08:23:11 12° 88° (E) 08:25:45 435.675 MHz FM
UOSAT-12 23 Aug 09:03:40 09:07:22 23° 314° (NW) 09:11:07 437.025 FM, 437.400 FM
Saudisat 1A 23 Aug 09:05:26 09:09:27 33° 50° (NE) 09:13:25 436.775 MHz
KITSAT 1 23 Aug 09:24:03 09:31:31 39° 49° (NE) 09:38:56 435.175 FM
HO-68 23 Aug 10:04:42 10:11:53 79° 105° (ESE) 10:19:02 435.675 MHz FM
RS-15 23 Aug 10:09:51 10:20:52 68° 306° (NW) 10:31:47 29.354 - 29.394 USB, Beacon 29.352 USB
UKube-1 23 Aug 10:29:55 10:34:17 82° 285° (WNW) 10:38:36 145.840 MHz, 145.915 MHz
Oscar 11 23 Aug 10:44:48 10:49:11 89° 283° (WNW) 10:53:33 145.825 FM, Beacon 2401.500 USB
Saudisat 1A 23 Aug 10:45:14 10:48:53 26° 247° (WSW) 10:52:31 436.775 MHz
FUNcube-1 23 Aug 10:47:45 10:51:54 37° 98° (E) 10:56:06 145.950 - 145.970 MHz USB
KITSAT 1 23 Aug 11:19:23 11:27:05 51° 248° (WSW) 11:34:45 435.175 FM
HO-68 23 Aug 11:53:52 11:58:47 20° 303° (WNW) 12:03:42 435.675 MHz FM
JAS-1B 23 Aug 12:00:27 12:04:01 13° 49° (NE) 12:07:29 435.800 - 435.900 CW/SSB
Oscar 16 23 Aug 12:10:38 12:13:08 14° 61° (ENE) 12:15:39 437.025 USB, Beacon 2401.1428
FUNcube-1 23 Aug 12:24:47 12:28:03 20° 293° (WNW) 12:31:21 145.950 - 145.970 MHz USB
RS-15 23 Aug 12:27:23 12:35:46 24° 334° (NNW) 12:44:11 29.354 - 29.394 USB, Beacon 29.352 USB
AO-Echo 23 Aug 13:07:39 13:11:29 22° 66° (ENE) 13:15:14 ?
SO-50 23 Aug 13:09:29 13:11:58 14° 40° (NE) 13:14:27 436.795 FM
Oscar 19 23 Aug 13:13:27 13:18:24 51° 72° (ENE) 13:23:24 437.125 CW, 437.150 USB
ITAMSAT 1 23 Aug 13:27:53 13:32:23 31° 68° (ENE) 13:36:54 435.822 SSB
ISS 23 Aug 13:37:23 13:40:41 81° 141° (SE) 13:44:01 145.800 FM
Gurwin Techsat 1B 23 Aug 13:38:05 13:41:33 18° 63° (ENE) 13:45:01 435.225 FM
Uribyol 2 23 Aug 13:39:35 13:44:25 42° 70° (ENE) 13:49:16 436.500 FM
JAS-1B 23 Aug 13:43:08 13:52:36 53° 68° (ENE) 14:01:30 435.800 - 435.900 CW/SSB
Oscar 16 23 Aug 13:46:41 13:51:49 75° 257° (WSW) 13:57:00 437.025 USB, Beacon 2401.1428
AO-27 23 Aug 13:54:03 13:59:06 56° 72° (ENE) 14:04:11 436.795 MHz FM
AO-7 23 Aug 14:17:55 14:22:54 18° 50° (NE) 14:27:53 29.400 - 29.500 MHz
TMSAT-1 23 Aug 14:33:12 14:38:07 41° 70° (ENE) 14:43:03 436.925 FM
AO-Echo 23 Aug 14:45:01 14:49:57 44° 261° (W) 14:54:46 ?
RS-15 23 Aug 14:46:36 14:53:47 19° 11° (NNE) 15:01:02 29.354 - 29.394 USB, Beacon 29.352 USB
SO-50 23 Aug 14:48:25 14:53:14 85° 58° (ENE) 14:58:05 436.795 FM
MaSat-1 23 Aug 14:53:43 14:58:17 55° 110° (ESE) 15:03:17 437.345 MHz
Oscar 19 23 Aug 14:54:31 14:58:01 18° 268° (W) 15:01:33 437.125 CW, 437.150 USB
ITAMSAT 1 23 Aug 15:07:17 15:11:49 30° 264° (W) 15:16:22 435.822 SSB
ISS 23 Aug 15:15:20 15:17:46 19° 339° (NNW) 15:20:12 145.800 FM
Gurwin Techsat 1B 23 Aug 15:15:47 15:21:01 59° 259° (W) 15:26:16 435.225 FM
Uribyol 2 23 Aug 15:20:06 15:24:02 22° 266° (W) 15:28:00 436.500 FM
Uosat F 23 Aug 15:29:00 15:33:11 27° 67° (ENE) 15:37:23 435.120 FM
JAS-1B 23 Aug 15:33:54 15:43:03 42° 264° (W) 15:51:52 435.800 - 435.900 CW/SSB
AO-27 23 Aug 15:35:42 15:38:57 17° 268° (W) 15:42:14 436.795 MHz FM
UOSAT-12 23 Aug 15:53:03 15:57:21 33° 50° (NE) 16:01:35 437.025 FM, 437.400 FM
AO-7 23 Aug 16:06:03 16:14:22 77° 70° (ENE) 16:22:42 29.400 - 29.500 MHz
TMSAT-1 23 Aug 16:13:57 16:18:09 24° 266° (W) 16:22:23 436.925 FM
PANSAT 23 Aug 16:19:38 16:21:33 13° 171° (S) 16:23:27 not established
OPAL 23 Aug 16:23:02 16:26:53 21° 96° (E) 16:30:43 ?
MaSat-1 23 Aug 16:32:09 16:35:47 21° 309° (NW) 16:39:37 437.345 MHz
SO-50 23 Aug 16:32:13 16:33:07 11° 254° (WSW) 16:34:01 436.795 FM
ISS 23 Aug 16:54:44 16:55:33 11° 359° (N) 16:56:22 145.800 FM
RS-15 23 Aug 16:59:56 17:10:16 43° 44° (NE) 17:20:54 29.354 - 29.394 USB, Beacon 29.352 USB
Hamsat 23 Aug 17:03:03 17:06:02 19° 67° (ENE) 17:09:03 145.90 MHz
Uosat F 23 Aug 17:07:20 17:11:50 33° 263° (W) 17:16:22 435.120 FM
Sapphire 23 Aug 17:28:26 17:31:03 14° 103° (ESE) 17:33:40 437.095 MHz 1200 baud AX-25 AFSK
UOSAT-12 23 Aug 17:33:21 17:37:24 29° 247° (WSW) 17:41:23 437.025 FM, 437.400 FM
JAS-2 23 Aug 17:49:15 17:55:49 63° 73° (ENE) 18:01:38 435.800 - 435.900 CW/SSB, 435.910 FM
PCSat 23 Aug 17:56:31 18:01:03 28° 108° (ESE) 18:05:37 145.825 MHz
PANSAT 23 Aug 17:58:48 18:01:02 15° 184° (S) 18:03:15 not established
